Location: Stubblandet
(66.6333°N, 22.2500°E)
Time: 21:35:07
(UTC+00:00)

Daily predictions for brighter satellites

Satellite Brightness Start Highest point End
(mag) Time Altitude Azimuth Time Altitude Azimuth Time Altitude Azimuth
ATLAS 2AS CENTAUR R/B 3.1 14:04:26 10° W 14:11:25 70° S 14:18:09 10° ESE
ALOS 2 4.5 14:11:10 10° NNE 14:14:20 20° NNW 14:17:29 10° W
SJ-11-01 4.5 14:11:44 10° SSE 14:16:28 82° WSW 14:21:13 10° NNW
Cosmos 2278 4.4 14:12:25 10° S 14:17:45 43° ESE 14:23:08 10° NE
SL-16 R/B 3.1 14:15:25 10° NNE 14:21:21 42° E 14:27:17 10° SSE
Cosmos 1624 Rocket 4.2 14:17:19 10° SW 14:22:36 72° NW 14:27:56 10° NE
Cosmos 1110 Rocket 4.1 14:18:48 10° SSW 14:24:02 73° SE 14:29:15 10° NE
Cosmos 1818 3.9 14:18:34 10° W 14:24:02 72° SSW 14:29:30 10° ESE
Cosmos 2369 Rocket 2.3 14:18:55 10° WNW 14:24:29 59° NNE 14:30:02 10° E
Cosmos 1470 Rocket 3.6 14:21:09 10° NNW 14:25:35 85° WSW 14:29:56 10° SSE
Meteor 1-22 Rocket 4.1 14:20:09 10° NNW 14:25:37 77° ENE 14:30:55 10° SSE
Cosmos 1634 Rocket 4.2 14:19:26 10° NNW 14:25:42 55° ENE 14:31:55 10° SE
PSLV R/B 3.8 14:22:32 10° ESE 14:26:22 40° NE 14:30:15 10° NNW
Meteor 2-10 Rocket 3.8 14:21:32 10° NNW 14:27:16 89° ENE 14:33:06 10° SSE
Cosmos 1953 3.0 14:24:34 10° N 14:27:54 28° NE 14:31:11 10° ESE
Cosmos 1151 Rocket 3.0 14:24:07 10° S 14:28:23 78° ESE 14:32:39 10° NNE
ADEOS Rocket 2.9 14:23:38 10° SSE 14:29:09 84° WSW 14:34:48 10° NNW
SL-19 R/B 4.3 14:23:58 10° SE 14:29:45 68° ENE 14:35:15 10° NNW
Meteor 1-18 Rocket 4.4 14:24:50 10° S 14:30:39 68° ESE 14:36:34 10° NNE
Cosmos 990 Rocket 4.1 14:26:11 10° NW 14:31:27 90° ENE 14:36:43 10° SE
SMAP 3.2 14:26:55 10° SE 14:31:29 56° ENE 14:36:04 10° NNW
Cosmos 372 Rocket 3.9 14:27:48 10° NW 14:32:53 64° NE 14:37:57 10° ESE
ACS3 Solar Sail 2.4 14:27:51 10° ESE 14:33:38 38° NE 14:39:23 10° NNW
Cosmos 2333 Rocket 3.1 14:30:20 10° S 14:35:22 34° ESE 14:40:26 10° NE
COSMOS 2428 4.4 14:32:30 10° SE 14:35:31 15° E 14:38:34 10° ENE
Cosmos 1656 3.9 14:30:30 10° W 14:35:53 59° NNW 14:41:18 10° ENE
Meteor 1-16 Rocket 4.2 14:34:18 10° NNW 14:39:35 54° ENE 14:45:00 10° SE
Cosmos 1933 Rocket 3.5 14:35:33 10° NNW 14:39:59 79° ENE 14:44:26 10° SSE
CZ-4 R/B 3.1 14:38:21 10° ENE 14:40:39 15° NNE 14:42:59 10° N
CZ-2D R/B 3.5 14:37:48 10° SE 14:42:01 64° ENE 14:46:10 10° NNW
Cosmos 1869 Rocket 3.6 14:38:12 10° NNW 14:42:37 64° ENE 14:47:02 10° SSE
Meteor 2-16 Rocket 4.5 14:37:05 10° S 14:43:06 67° E 14:49:10 10° NNE
Cosmos 1300 2.7 14:39:48 10° NNW 14:43:11 70° WSW 14:46:32 10° S
Cosmos 2322 Rocket 2.9 14:39:32 10° S 14:44:44 41° ESE 14:49:51 11° NE
Meteor 1-28 Rocket 3.2 14:42:04 10° NNE 14:45:31 53° ESE 14:48:58 10° S
Resurs 01 Rocket 3.1 14:43:09 10° ENE 14:46:07 18° NNE 14:49:06 10° N
Cosmos 2297 3.8 14:41:35 10° WNW 14:47:20 66° NNE 14:53:04 10° ESE
Cosmos 2360 Rocket 2.9 14:42:43 10° S 14:47:54 38° ESE 14:52:53 11° NE
Cosmos 2263 4.3 14:42:32 10° WNW 14:48:09 61° NNE 14:53:49 10° E
SJ-6F 4.3 14:45:03 10° SSE 14:49:04 73° ENE 14:53:10 10° NNW
SJ-6B 4.2 14:47:38 10° ENE 14:50:01 17° NE 14:52:24 10° N
IGS 5A 3.6 14:47:05 10° SE 14:50:57 46° ENE 14:54:50 10° NNW
Cosmos 1937 Rocket 3.4 14:47:17 10° NW 14:52:26 67° NE 14:57:35 10° ESE
SL-24 DEB 4.3 14:48:42 10° N 14:53:16 82° W 14:57:50 10° SSW
Cosmos 2292 Rocket 4.1 14:47:46 10° S 14:53:18 54° E 14:57:36 10° NNE
H-2A R/B 4.4 14:50:46 10° N 14:53:35 18° NW 14:56:20 10° WNW
Cosmos 1464 Rocket 4.4 14:47:46 10° NNW 14:54:08 70° W 15:00:27 10° S
SL-16 R/B 2.5 14:48:45 10° SSW 14:54:17 56° SE 14:59:30 12° NE
AQUARIUS 4.2 14:50:31 10° SE 14:54:52 58° ENE 14:59:15 10° NNW
Cosmos 1328 Rocket 3.5 14:53:23 10° S 14:57:38 66° ESE 15:01:55 10° NNE
Cosmos 1943 Rocket 2.5 14:52:36 10° NW 14:58:17 73° SW 15:03:55 10° SE
Cosmos 2034 Rocket 4.1 14:53:56 10° NNW 15:00:08 81° WSW 15:06:19 10° S
Helios 1B rocket 3.7 14:58:12 11° ENE 15:00:32 18° NE 15:03:11 10° N
SJ-12 4.0 14:57:42 10° SSE 15:01:34 76° WSW 15:05:28 10° NNW
Cosmos 1371 Rocket 4.5 14:57:34 10° WSW 15:02:48 55° NNW 15:07:34 12° NE
Okean O Rocket 3.3 15:01:50 13° NE 15:03:35 16° NNE 15:06:10 10° NNW
CZ-4B R/B 4.5 14:59:44 10° E 15:03:40 25° NNE 15:07:42 10° NNW
ASTEX 1 3.3 14:58:53 10° SSE 15:03:43 70° ENE 15:08:35 10° N
SPOT 5 4.3 15:02:07 12° NE 15:03:45 15° NNE 15:06:12 10° NNW
Geosat 4.4 15:00:13 10° E 15:05:01 49° N 15:09:51 10° WNW
Cosmos 1674 3.4 15:05:22 10° SW 15:08:13 36° WNW 15:11:05 10° N
Cosmos 2369 3.8 15:03:12 10° SW 15:08:54 86° NW 15:13:58 14° NE
Meteor 1-31 Rocket 3.3 15:06:09 10° ESE 15:09:21 32° NE 15:12:36 10° N
ARIANE 5 R/B 3.2 15:05:35 10° S 15:10:45 60° WSW 15:15:55 10° NNW
RESURS DK-1 3.2 15:07:50 10° WNW 15:11:47 53° SW 15:15:43 10° SSE
Cosmos 2278 Rocket 2.9 15:06:23 10° NW 15:11:58 58° SW 15:17:31 10° SSE
In-Cosmos 22 4.4 15:07:15 10° S 15:12:53 59° E 15:18:33 10° NNE
Cosmos 2237 Rocket 3.9 15:10:31 10° ESE 15:13:02 13° E 15:14:18 12° E
Cosmos 1452 Rocket 3.6 15:08:15 10° SW 15:13:33 78° NW 15:18:17 13° NE
CZ-2D R/B 3.4 15:10:34 10° S 15:13:59 65° WSW 15:17:25 10° NNW
Tsikada Rocket 4.3 15:08:37 10° SSE 15:14:26 46° E 15:20:18 10° NNE
Cosmos 1066 Rocket 4.4 15:09:29 10° SSW 15:15:14 86° WNW 15:21:09 10° NNE
Cosmos 2360 4.5 15:11:08 10° W 15:16:48 60° N 15:21:32 15° ENE
Cosmos 1992 Rocket 4.2 15:12:13 10° SSW 15:17:19 59° ESE 15:21:44 14° NE
Meteor 2-4 Rocket 4.2 15:12:55 10° SW 15:18:43 67° WNW 15:24:39 10° NNE
Cosmos 1302 Rocket 4.0 15:13:39 10° SW 15:18:55 81° SE 15:23:34 14° NE
COSMO-SKYMED 1 4.1 15:18:11 16° ENE 15:18:59 16° E 15:21:43 10° ESE
CZ-2C R/B 3.7 15:14:22 10° NNE 15:19:10 39° NW 15:24:01 10° WSW
CZ-2C R/B 3.4 15:16:41 10° ESE 15:19:34 27° NE 15:22:30 10° N
Cosmos 1331 Rocket 4.1 15:15:17 10° SW 15:20:27 72° NW 15:24:55 14° NE
USA 81 4.3 15:15:34 10° SSE 15:20:38 49° E 15:25:44 10° NNE
Cosmos 1455 1.8 15:17:40 10° NNW 15:20:55 81° WSW 15:24:08 10° SSE
Cosmos 1515 Rocket 3.6 15:16:48 10° S 15:21:03 57° E 15:25:20 10° NNE
Cosmos 2219 Rocket 2.8 15:17:50 10° S 15:22:58 38° ESE 15:26:59 16° ENE
Cosmos 1782 Rocket 4.4 15:19:14 10° N 15:22:59 27° NE 15:26:41 10° ESE
Okean-O 4.3 15:22:46 14° NE 15:23:56 16° NNE 15:26:35 10° NNW
KORONAS-FOTON 4.3 15:20:31 10° SW 15:24:04 54° WNW 15:27:37 10° NNE
Cosmos 1707 2.9 15:20:47 10° SSW 15:24:13 61° WNW 15:27:39 10° NNE
NOAA 6 4.1 15:20:45 10° SE 15:25:43 53° NE 15:30:44 10° NNW
Cosmos 2056 Rocket 4.1 15:21:16 10° W 15:26:16 47° NNW 15:30:18 15° NE
ARGOS Delta rocket 3.6 15:23:00 10° SSE 15:27:33 82° ENE 15:31:59 10° NNW
Cosmos 1125 Rocket 3.9 15:23:16 10° NW 15:28:21 46° NNE 15:32:41 14° E
Cosmos 2237 4.3 15:23:06 10° SW 15:28:50 81° SE 15:33:28 16° NE
Cosmos 1842 3.7 15:26:47 10° SW 15:30:14 53° WNW 15:33:44 10° NNE
SJ-7 4.2 15:27:05 10° SSE 15:30:54 86° ENE 15:34:47 10° NNW
Cosmos 1758 4.2 15:27:12 10° NNW 15:30:57 50° W 15:34:42 10° S
Cosmos 1461 2.9 15:27:58 10° WSW 15:31:46 66° S 15:34:34 18° E
Cosmos 1697 Rocket 2.9 15:26:49 10° W 15:32:26 60° NNW 15:36:41 18° ENE
Cosmos 1733 Rocket 3.0 15:28:07 10° NNW 15:32:31 72° ENE 15:36:56 10° SSE
CZ-4B R/B 3.8 15:30:01 10° SE 15:33:24 43° ENE 15:36:47 10° NNW
USA 215 4.5 15:28:52 11° E 15:34:21 29° SSE 15:39:57 10° SSW
CSL-04 DEB 4.5 15:31:39 10° SSE 15:35:29 73° WSW 15:39:15 10° NNW
Cosmos 2279 Rocket 4.0 15:30:23 10° NNW 15:36:39 84° ENE 15:42:52 10° SSE
UNK 3.7 15:32:18 10° NNE 15:36:55 73° ESE 15:41:28 10° SSW
Spot 4 Rocket 4.3 15:32:00 10° SSE 15:37:09 76° WSW 15:42:19 10° NNW
SL-14 R/B 3.2 15:36:35 10° S 15:40:19 58° ESE 15:43:32 14° NNE
CZ-4B R/B 3.9 15:37:02 15° E 15:40:43 31° NE 15:45:22 10° NNW
YAOGAN 1 2.7 15:36:50 10° SE 15:40:59 50° ENE 15:45:09 10° NNW
Helios 1A Rocket 3.3 15:38:33 10° NNE 15:42:07 52° WNW 15:45:42 10° SW
Cosmos 1656 Rocket 3.6 15:37:44 10° NW 15:43:13 88° SW 15:48:45 10° SE
NOSS 3-3 (C) 4.4 15:37:31 10° SW 15:43:23 58° SSE 15:48:50 17° E
Cosmos 1898 Rocket 3.9 15:38:58 10° NW 15:44:14 70° SW 15:49:31 10° SSE
SPOT 1/Viking Rocket 3.7 15:40:28 10° SE 15:45:25 49° NE 15:50:22 10° NNW
Landsat 7 3.7 15:40:53 10° SE 15:45:33 70° ENE 15:50:16 10° NNW
Cosmos 1607 4.2 15:40:51 10° SW 15:47:06 60° SSE 15:51:32 19° E
Cosmos 1980 Rocket 2.4 15:41:28 10° WSW 15:47:09 65° NNW 15:51:13 20° ENE
Cosmos 1553 Rocket 4.5 15:42:29 10° NNW 15:48:13 37° NE 15:53:51 10° ESE
Cosmos 1816 Rocket 4.5 15:42:33 10° SSW 15:48:44 85° ESE 15:55:02 10° NNE
Terra 3.3 15:48:00 17° NE 15:48:56 18° NNE 15:52:05 10° NNW
Cosmos 1315 Rocket 4.1 15:46:21 10° WSW 15:50:02 36° NW 15:53:43 10° NNE
Cosmos 2333 4.4 15:47:09 10° SSW 15:52:40 58° SE 15:56:28 21° ENE
Cosmos 2228 Rocket 3.9 15:48:40 10° SSE 15:52:41 32° E 15:55:16 18° NE
Cosmos 2084 4.2 15:49:30 10° SW 15:53:18 38° SSE 15:55:26 21° ESE
Resurs 1-3 3.8 15:52:17 10° SE 15:56:26 47° ENE 16:00:37 10° NNW
Cosmos 2278 3.7 15:55:53 10° SW 16:01:37 86° NW 16:05:31 22° NE
PSLV R/B 4.2 15:57:41 10° S 16:01:43 56° WSW 16:05:48 10° NNW
ATLAS 2AS CENTAUR R/B 3.5 15:55:12 10° WNW 16:01:53 52° SSW 16:08:21 10° SE
Cosmos 1300 Rocket 3.9 15:58:20 10° NNW 16:02:25 39° ENE 16:05:39 15° ESE
CZ-4B R/B 3.9 16:02:41 26° ENE 16:03:21 28° NE 16:06:55 10° NNW
Cosmos 1953 2.4 15:59:58 10° NNW 16:03:43 71° WSW 16:07:26 10° S
SL-16 R/B 2.7 15:59:11 10° NNE 16:05:27 78° WNW 16:11:43 10° SW
Meteor 1-23 Rocket 4.2 16:00:40 10° S 16:06:12 66° ESE 16:11:45 10° NNE
Okean 1-7 4.0 16:03:47 10° SE 16:06:52 25° E 16:06:52 25° E
SKYMED 2 4.4 16:06:44 27° ENE 16:07:36 30° E 16:11:27 10° SSE
Cosmos 2369 Rocket 2.2 16:03:15 10° NW 16:08:53 87° SW 16:14:30 10° SE
SMAP 4.3 16:04:32 10° S 16:09:02 45° W 16:13:32 10° NNW
ADEOS 3.7 16:08:26 10° SE 16:13:28 50° NE 16:18:31 10° NNW
CZ-4 R/B 1.9 16:13:23 32° ENE 16:14:09 35° NE 16:17:49 10° NNW
MOS 1 Rocket 4.2 16:12:39 24° E 16:15:02 36° NE 16:19:52 10° NNW
DMSP B5D2-2 4.4 16:09:55 10° NNE 16:15:10 69° WNW 16:20:25 10° SW
ACS3 Solar Sail 1.8 16:10:17 10° SSE 16:16:43 83° ENE 16:23:07 10° NNW
Meteor 1-13 Rocket 4.4 16:11:09 10° SSW 16:17:07 86° WNW 16:23:08 10° NNE
EO 1 Delta rocket 4.3 16:13:35 10° NNE 16:18:24 39° E 16:22:45 10° SSE
COSMOS 2428 3.2 16:13:08 10° S 16:18:26 42° ESE 16:20:53 27° ENE
Meteor 1-28 Rocket 4.5 16:15:25 11° N 16:18:26 34° NW 16:21:39 10° WSW
Cosmos 2333 Rocket 2.2 16:13:29 10° SW 16:19:10 81° SE 16:22:32 26° ENE
Cosmos 1656 3.8 16:14:49 10° WNW 16:20:11 57° N 16:22:53 29° ENE
Cosmos 2298 Rocket 4.3 16:15:03 10° NW 16:20:13 49° NNE 16:22:38 29° E
Resurs 01 Rocket 2.0 16:20:01 29° ESE 16:21:41 41° NE 16:25:50 10° NNW
JB-3 4.2 16:20:11 17° NNE 16:23:08 87° ESE 16:26:59 10° SSW
SJ-6B 2.8 16:22:06 36° ESE 16:23:09 48° ENE 16:26:44 10° NNW
Cosmos 1908 Rocket 3.4 16:21:09 10° NNW 16:25:33 78° ENE 16:29:54 10° SSE
Cosmos 2322 Rocket 2.2 16:22:49 10° SW 16:28:28 88° NW 16:31:38 28° NE
Cosmos 2360 Rocket 2.2 16:25:49 10° SW 16:31:31 87° SE 16:34:38 28° NE
Cosmos 2297 4.0 16:25:57 10° NW 16:31:43 71° SW 16:37:25 10° SE
NOSS 3-3 (A) 4.3 16:26:08 10° WSW 16:32:12 67° S 16:36:19 27° E
Cosmos 2150 Rocket 4.3 16:26:59 10° NW 16:32:20 53° NNE 16:34:34 32° E
Cosmos 2263 4.2 16:26:59 10° NW 16:32:41 82° SW 16:37:35 15° SE
Helios 1B rocket 2.3 16:33:11 44° E 16:33:54 52° ENE 16:37:35 10° NNW
Dummy Sat-02 4.4 16:30:30 10° S 16:34:09 84° E 16:36:50 18° N
Cosmos 1937 Rocket 4.4 16:29:21 10° NW 16:34:17 49° WSW 16:39:15 10° S
PAYLOAD B 4.3 16:30:21 17° SE 16:34:34 55° NE 16:40:04 10° NNW
CZ-4B DEB 4.2 16:30:12 10° SE 16:35:37 62° NE 16:41:03 10° NNW
Cosmos 2344 4.1 16:29:26 10° SSW 16:35:56 36° SE 16:38:47 27° E
Meteor 2-17 Rocket 4.3 16:30:43 10° S 16:36:46 76° ESE 16:42:51 10° NNE
Ariane Rocket 4.2 16:37:05 23° NE 16:37:26 23° NNE 16:41:23 10° NNW
CARTOSAT-1 3.6 16:37:01 38° ESE 16:38:12 50° ENE 16:42:20 10° NNW
SL-16 R/B 2.3 16:32:41 10° WSW 16:38:23 74° NNW 16:41:21 29° NE
Okean O Rocket 2.4 16:39:07 31° NE 16:39:07 31° NE 16:42:42 10° NNW
SPOT 5 3.6 16:41:12 29° NNE 16:41:12 29° NNE 16:44:30 10° NNW
Cosmos 1943 Rocket 4.2 16:36:34 10° NW 16:41:23 29° WSW 16:46:10 10° S
CZ-4B R/B 3.4 16:39:06 27° ESE 16:41:36 56° NE 16:46:28 10° NNW
Cosmos 1707 Rocket 3.5 16:37:14 10° S 16:41:36 61° E 16:43:42 29° NNE
Okean 3 3.3 16:37:41 10° S 16:41:46 63° ESE 16:43:18 36° NE
Geosat 3.9 16:40:18 33° ESE 16:42:33 70° NNE 16:47:34 10° NW
CSL-04 Rocket 3.7 16:40:06 29° ESE 16:42:36 51° NE 16:47:43 10° NNW
Meteor 1-31 Rocket 3.1 16:39:12 10° S 16:42:45 61° WSW 16:46:21 10° NNW
ERS-1 Rocket 3.8 16:42:47 29° NE 16:42:59 30° NE 16:47:19 10° NNW
Cosmos 2026 Rocket 4.4 16:37:37 10° SSE 16:43:24 38° E 16:49:10 10° NNE
Okean 2 3.3 16:42:14 10° S 16:46:07 57° E 16:46:33 53° ENE
Cosmos 724 4.3 16:43:11 10° WSW 16:49:07 77° SSE 16:51:44 36° E
CZ-2C R/B 2.6 16:48:51 10° SSE 16:52:12 71° WSW 16:55:37 10° NNW
Cosmos 2369 4.0 16:47:54 10° W 16:53:33 58° N 16:55:52 34° NE
Cosmos 2237 Rocket 2.7 16:50:26 10° S 16:55:38 38° ESE 16:56:08 37° ESE
COSMO-SKYMED 1 2.6 16:55:23 50° ENE 16:56:05 57° ESE 17:00:22 10° S
Cosmos 1452 Rocket 4.3 16:51:14 10° W 16:56:15 43° NNW 16:58:33 28° NE
Okean-O 3.7 17:00:10 30° NNE 17:00:10 30° NNE 17:03:12 10° NNW
Cosmos 1992 Rocket 4.4 16:54:10 10° WSW 16:59:19 60° NW 17:01:48 30° NE
Cosmos 1862 Rocket 3.4 16:55:05 10° S 16:59:29 73° ESE 17:01:14 36° NNE
Tsikada Rocket 4.3 16:53:45 10° SSW 16:59:53 67° WNW 17:06:06 10° NNE
Cosmos 1782 Rocket 3.4 16:56:59 10° NNW 17:01:22 87° E 17:04:31 18° SSE
Cosmos 2360 4.3 16:56:03 10° WNW 17:01:45 63° NNE 17:03:32 42° ENE
Cosmos 2219 Rocket 2.1 17:00:54 10° SW 17:06:32 89° SSE 17:08:41 40° NE
Cosmos 1461 2.8 17:05:24 10° W 17:09:13 64° SSW 17:09:30 61° SSE
Cosmos 2056 Rocket 4.3 17:04:32 10° WNW 17:09:20 37° N 17:10:34 32° NNE
CZ-4C R/B 3.6 17:06:01 10° S 17:08:01 19° SSE 17:08:01 19° SSE
Cosmos 1125 Rocket 3.4 17:05:34 10° NW 17:10:53 89° NE 17:12:54 39° SE
Okean 2 Rocket 4.0 17:08:58 10° NNW 17:11:57 33° NNE 17:11:57 33° NNE
Nadezhda 4 Rocket 3.8 17:07:22 10° S 17:13:27 70° E 17:19:38 10° NNE
Cosmos 2237 4.5 17:07:44 10° W 17:13:27 62° NNW 17:15:28 39° NE
Meteor 1-21 4.3 17:08:38 10° SSW 17:14:17 76° WNW 17:19:32 13° NNE
YAOGAN 1 3.6 17:12:52 10° S 17:17:00 46° W 17:21:10 10° NNW
Cosmos 1697 Rocket 2.9 17:11:28 10° WNW 17:17:05 59° NNE 17:18:24 47° ENE
Cosmos 1763 Rocket 3.3 17:12:16 10° SSW 17:17:26 72° SE 17:18:31 54° ENE
Cosmos 2195 Rocket 4.4 17:12:03 10° S 17:18:03 57° E 17:24:04 10° NNE
USA 215 4.0 17:16:12 29° SE 17:18:39 39° S 17:24:43 10° WSW
CSL-04 Debris 4.1 17:17:16 35° SE 17:19:41 76° ENE 17:25:10 10° NNW
CZ-4B R/B 3.0 17:18:54 41° SE 17:20:46 73° ENE 17:26:07 10° NNW
Cosmos 540 Rocket 3.3 17:18:03 10° SSW 17:23:09 68° SE 17:23:47 61° E
SPOT 1/Viking Rocket 4.1 17:19:42 10° S 17:24:48 59° WSW 17:29:55 10° NNW
Terra 2.8 17:26:40 32° NNE 17:26:40 32° NNE 17:29:50 10° NNW
Cosmos 2322 3.6 17:20:14 10° SW 17:25:59 79° SE 17:27:28 51° ENE
Cosmos 468 Rocket 3.9 17:21:57 10° SSW 17:27:04 62° ESE 17:27:14 62° ESE
Cosmos 1417 Rocket 4.4 17:22:53 10° NNW 17:29:16 67° ENE 17:31:32 41° SE
Spot 2 Rocket 4.3 17:31:01 34° NNE 17:31:01 34° NNE 17:34:49 10° NNW
Cosmos 2228 Rocket 3.3 17:25:59 10° SSW 17:30:33 72° WNW 17:32:42 31° N
Cosmos 2084 3.9 17:27:50 10° WSW 17:31:20 47° SSW 17:31:20 47° SSW
Cosmos 1980 Rocket 2.5 17:26:11 10° WNW 17:31:50 57° N 17:32:57 48° NE
MetOp-B 4.2 17:31:59 55° ENE 17:32:03 55° NE 17:37:18 10° NNW
Resurs 1-3 4.4 17:28:23 10° S 17:32:36 49° W 17:36:50 10° NNW
Meteor 2-20 4.3 17:26:37 10° NNW 17:32:43 68° ENE 17:34:25 48° SE
NOSS 3-3 (C) 4.3 17:27:41 10° W 17:33:58 69° S 17:36:18 45° ESE
Cosmos 1607 3.9 17:27:48 10° W 17:34:09 78° S 17:35:39 54° ESE
Cosmos 1553 Rocket 3.9 17:28:07 10° NNW 17:34:22 89° ENE 17:39:07 18° SSE
Cosmos 841 Rocket 4.3 17:31:32 10° S 17:35:00 36° SSE 17:35:00 36° SSE
Cosmos 2333 4.3 17:31:12 10° WSW 17:36:52 73° NNW 17:38:23 49° NE
CZ-4B R/B 3.2 17:37:52 61° NNW 17:37:52 61° NNW 17:41:23 10° NNW
Cosmos 1300 Rocket 4.1 17:36:04 10° NNW 17:40:18 57° W 17:42:41 24° S
Cosmos 883 Rocket 4.4 17:35:59 10° NNW 17:42:04 60° ENE 17:42:33 58° E
Okean 1-7 3.3 17:39:50 10° SSW 17:43:22 59° SSW 17:43:22 59° SSW
SKYMED 2 3.6 17:43:56 72° NNW 17:44:13 77° WNW 17:48:34 10° SSW
SL-16 R/B 4.2 17:39:59 10° S 17:40:55 14° S 17:40:55 14° S
Cosmos 1980 3.7 17:39:37 10° SSW 17:44:57 60° SE 17:44:57 60° SE
Cosmos 2278 4.0 17:40:35 10° W 17:46:15 58° N 17:47:24 48° NE
CZ-4 R/B 1.8 17:48:42 61° WNW 17:48:42 61° WNW 17:52:23 10° NNW
SL-16 R/B 3.8 17:43:40 14° NNE 17:48:30 37° NW 17:54:10 10° W
ATLAS 2AS CENTAUR R/B 4.5 17:46:07 10° WNW 17:51:36 26° SW 17:56:56 10° S
Cosmos 2369 Rocket 3.5 17:47:24 10° NW 17:52:30 37° WSW 17:56:55 13° S
MOS 1 Rocket 3.5 17:51:45 62° SSE 17:52:43 89° ENE 17:58:08 10° NNW
ADEOS 4.0 17:48:47 16° S 17:52:59 59° WSW 17:58:10 10° NNW
NOSS 0 Rocket 3.8 17:49:03 10° SW 17:55:11 71° SE 17:55:40 67° ESE
Feng Yun 1-1 Rocket 4.4 17:52:44 37° SSE 17:55:11 81° WSW 18:01:10 10° NNW
S3M 3.9 17:50:16 10° NNW 17:56:32 78° ENE 17:57:45 60° SE
SJ-6B 4.0 17:56:49 37° WSW 17:57:06 38° W 18:00:35 10° NNW
Resurs 01 Rocket 2.1 17:57:26 53° SW 17:58:02 59° WSW 18:02:25 10° NNW
Cosmos 1092 Rocket 3.8 17:53:12 10° S 17:59:22 76° ESE 18:05:40 10° NNE
MOS 1-B 4.2 17:58:31 58° SSE 17:59:45 89° WSW 18:05:36 10° NNW
Cosmos 2315 Rocket 3.8 17:54:34 10° NNW 18:00:47 68° ENE 18:01:01 68° E
ACS3 Solar Sail 3.2 17:54:58 10° SSW 18:00:54 38° W 18:06:49 10° NNW
COSMOS 2428 2.6 17:56:39 10° SW 18:02:23 88° NW 18:02:53 76° NE
Cosmos 2298 Rocket 3.9 17:57:34 10° NW 18:02:56 82° SW 18:03:07 80° SSW
Cosmos 2333 Rocket 2.4 17:58:08 10° W 18:03:46 62° NNW 18:04:32 56° NNE
Cosmos 1656 3.5 17:58:45 10° NW 18:04:14 89° NE 18:04:18 88° ESE
SPOT 3 Rocket 4.5 18:08:37 36° N 18:08:37 36° N 18:12:04 10° NNW
Cosmos 2098 Rocket 4.1 18:01:59 10° NNW 18:07:00 54° NNE 18:07:00 54° NNE
Helios 1B rocket 3.6 18:08:10 36° W 18:08:10 36° W 18:11:35 10° NNW
EO 1 Delta rocket 4.5 18:03:08 10° NNE 18:08:14 57° WNW 18:12:47 10° SW
Cosmos 2322 Rocket 2.5 18:07:22 10° W 18:12:57 58° N 18:13:26 56° NNE
Okean O Rocket 2.7 18:16:24 38° NNW 18:16:24 38° NNW 18:19:10 10° NNW
Cosmos 2150 Rocket 4.1 18:09:27 10° NW 18:14:54 73° SW 18:15:00 73° SW
Ariane Rocket 4.0 18:17:12 35° N 18:17:12 35° N 18:20:25 10° NNW
Cosmos 2360 Rocket 2.5 18:10:17 10° W 18:15:55 59° NNW 18:16:23 57° N
Meteor 2-12 Rocket 4.4 18:10:44 10° SSW 18:16:51 84° WNW 18:23:03 10° NNE
SPOT 5 3.9 18:20:17 34° NNW 18:20:17 34° NNW 18:22:46 10° NNW
MOS 1 4.2 18:18:56 85° S 18:19:04 87° WSW 18:24:49 10° NNW
CZ-4B R/B 4.2 18:18:58 37° SSW 18:20:24 48° WSW 18:25:13 10° NNW
Geosat 4.4 18:20:23 55° SW 18:20:34 55° SW 18:25:32 10° NW
ERS-1 Rocket 3.7 18:22:41 46° N 18:22:41 46° N 18:26:15 10° NNW
Cosmos 1627 Rocket 4.5 18:16:09 10° SSW 18:22:34 87° WNW 18:28:59 10° NNE
NOSS 3-3 (A) 4.3 18:16:25 10° W 18:22:49 64° SSW 18:23:44 59° SSE
CSL-04 Rocket 4.1 18:21:42 45° SSW 18:23:00 58° WSW 18:28:14 10° NNW
SL-16 R/B 2.5 18:17:28 10° W 18:23:04 56° N 18:23:11 56° N
Cosmos 2026 Rocket 4.0 18:21:53 10° SSW 18:28:17 82° WNW 18:34:41 10° NNE
COSMO-SKYMED 1 3.7 18:32:35 41° WNW 18:32:35 41° WNW 18:36:20 10° SW
Cosmos 724 4.4 18:29:04 10° W 18:34:42 75° SW 18:34:42 75° SW
Okean-O 4.2 18:37:34 29° NNW 18:37:34 29° NNW 18:39:47 10° NNW
Cosmos 2369 4.1 18:32:43 10° WNW 18:37:47 59° NNW 18:37:47 59° NNW
Cosmos 2237 Rocket 2.6 18:33:34 10° SW 18:37:58 55° SW 18:37:58 55° SW
Cosmos 2360 4.5 18:40:35 10° NW 18:45:32 66° WNW 18:45:32 66° WNW
Cosmos 2344 3.5 18:41:59 10° WSW 18:48:48 65° S 18:48:48 65° S
Cosmos 2219 Rocket 2.7 18:45:20 10° W 18:50:24 56° NW 18:50:24 56° NW
CZ-4C R/B 4.1 18:51:59 10° SW 18:53:04 17° SW 18:53:04 17° SW
Cosmos 1763 Rocket 4.4 18:54:24 10° WSW 18:58:28 45° WNW 18:58:28 45° WNW
Cosmos 1697 Rocket 3.2 18:55:45 10° NW 19:00:07 55° WNW 19:00:07 55° WNW
CZ-4B R/B 4.3 19:00:45 36° WSW 19:01:45 39° W 19:06:47 10° NNW
USA 215 4.2 19:03:33 35° SSW 19:03:33 35° SSW 19:08:48 10° W
Terra 3.5 19:05:19 29° NNW 19:05:19 29° NNW 19:07:36 10° NNW
Cosmos 2322 4.4 19:04:45 10° W 19:09:23 52° WNW 19:09:23 52° WNW
Cosmos 1980 Rocket 3.0 19:10:36 10° WNW 19:14:42 48° NW 19:14:42 48° NW
CZ-4 R/B 4.1 19:24:01 17° WNW 19:24:01 17° WNW 19:26:10 10° NW
SL-16 R/B 4.3 19:28:45 21° NNE 19:30:52 26° N 19:35:49 10° WNW
Resurs 01 Rocket 4.2 19:34:51 17° W 19:35:21 17° W 19:38:16 10° NW
COSMOS 2428 4.0 19:41:26 10° W 19:44:52 36° WNW 19:44:52 36° WNW
Cosmos 2333 Rocket 3.5 19:43:04 10° WNW 19:46:33 36° NW 19:46:33 36° NW
Okean O Rocket 4.3 19:53:41 17° NW 19:53:41 17° NW 19:55:11 10° NW
Cosmos 2322 Rocket 3.7 19:52:04 10° WNW 19:55:14 33° NW 19:55:14 33° NW
Cosmos 2360 Rocket 3.7 19:54:57 10° WNW 19:58:08 33° NW 19:58:08 33° NW
SL-16 R/B 3.8 20:02:06 10° WNW 20:05:02 31° NW 20:05:02 31° NW
Cosmos 2237 Rocket 4.3 20:18:06 10° W 20:19:49 20° W 20:19:49 20° W
Cosmos 2219 Rocket 4.2 20:29:56 10° WNW 20:32:06 24° WNW 20:32:06 24° WNW
Cosmos 1980 Rocket 4.4 20:54:44 10° NW 20:56:27 20° WNW 20:56:27 20° WNW
SL-16 R/B 4.3 21:13:49 26° N 21:13:49 26° N 21:18:00 10° NW
